Location: Ergnies
(50.0854°N, 2.0375°E)
Time: 10:36:24
(UTC+00:00)

Cosmos 44 - Pass Details

Date: 14 January 2026
Orbit: 570 x 780 km, 65.1° (Epoch: 11 February)

Event Time Altitude Azimuth Distance (km) Brightness Sun altitude
Exits shadow 06:44:47 10° 311° (NW) 2,281 5.4 -9.5°
Maximum altitude 06:49:46 46° 240° (WSW) 1,044 4.0 -8.7°
Drops below altitude 10° 06:54:53 10° 168° (SSE) 2,325 6.5 -8.0°
Sets 06:57:21 0° 163° (SSE) 3,242 7.4 -7.6°
